Home   Weather   Bludenz   Past weeks

Flag for Austria Past Weather in Bludenz, Vorarlberg, Austria — Yesterday and Last 2 Weeks

Now
26 °F

Chilly.


Feels Like: 26 °F
Forecast: 31 / 50 °F
Wind: 1 mph from Southeast

Location: Feldkirch

Current Time: Dec 4, 2016 at 1:09:32 am

Latest Report: Dec 4, 2016 at 12:00 am


Visibility: N/A

Pressure: 30.29 "Hg (28.21 "Hg at 563m altitude)

Humidity: 90%

Dew Point: 24 °F

Location of BludenzLocation

Past Weather in Bludenz — Graph

°F

Bludenz Temperature Yesterday

Maximum temperature yesterday: 40 °F (at 2:00 pm)
Minimum temperature yesterday: 23 °F (at 7:00 am)
Average temperature yesterday: 30 °F

High & Low Weather Summary for the Past Weeks

 TemperatureHumidityPressure
High67 °F (Nov 21, 3:00 pm)100% (Dec 2, 10:00 am)30.65 "Hg (Dec 2, 10:00 am)
Low22 °F (Nov 30, 8:00 am)31% (Nov 24, 12:00 pm)29.59 "Hg (Nov 21, 2:00 pm)
Average44 °F71%30.08 "Hg
* Reported Nov 18 11:00 pm — Dec 3 11:00 pm, Bludenz, Weather by CustomWeather, © 2016

Note: Actual official high and low records may vary slightly from our data, if they occured in-between our weather recording intervals... More about our weather records

Advertising

Bludenz Weather History for the Previous 24 Hours

Scroll right to see more
 ConditionsComfort  
Time TempWeatherWind HumidityBarometerVisibility
11:00 pm
Sat, Dec 3
26 °FChilly.No wind90%30.28 "HgN/A
10:00 pm28 °FChilly.1 mph89%30.26 "HgN/A
9:00 pm30 °FChilly.No wind86%30.24 "HgN/A
8:00 pm35 °FChilly.3 mph76%30.22 "HgN/A
7:00 pm34 °FChilly.2 mph80%30.22 "HgN/A
6:00 pm35 °FChilly.1 mph82%30.21 "HgN/A
5:00 pm35 °FChilly.1 mph80%30.19 "HgN/A
4:00 pm38 °FChilly.1 mph74%30.16 "HgN/A
3:00 pm40 °FChilly.1 mph70%30.14 "HgN/A
2:00 pm40 °FQuite cool.1 mph67%30.14 "HgN/A
1:00 pm39 °FChilly.1 mph68%30.15 "HgN/A
12:00 pm37 °FChilly.No wind69%30.16 "HgN/A
11:00 am35 °FChilly.1 mph75%30.19 "HgN/A
10:00 am31 °FChilly.1 mph78%30.20 "HgN/A
9:00 am27 °FChilly.1 mph90%30.19 "HgN/A
8:00 am24 °FCold.No wind91%30.20 "HgN/A
7:00 am23 °FPassing clouds.1 mph93%30.20 "Hg6 mi
6:00 am24 °FCold.1 mph92%30.19 "HgN/A
5:00 am23 °FCold.No wind91%30.20 "HgN/A
4:00 am25 °FCold.1 mph92%30.19 "HgN/A
3:00 am24 °FCold.No wind91%30.20 "HgN/A
2:00 am25 °FChilly.1 mph91%30.20 "HgN/A
1:00 am26 °FChilly.No wind89%30.22 "HgN/A
Weather by CustomWeather, © 2016

See weather overviewHow to use our weather pages